�������l�o���
Date,Time,MP-1(��Sv/h),MP-2(��Sv/h),MP-3(��Sv/h),MP-4(��Sv/h),MP-5(��Sv/h),MP-6(��Sv/h),MP-7(��Sv/h),MP-8(��Sv/h),����,����(m/s),���J
2019/04/29,00:00,0.750,1.093,0.756,1.383,1.013,0.434,0.763,0.723,��쐼,2.9,��
2019/04/29,00:10,0.751,1.093,0.754,1.380,1.014,0.432,0.765,0.724,��쐼,3.4,��
2019/04/29,00:20,0.751,1.094,0.755,1.382,1.015,0.432,0.764,0.725,��쐼,4.0,��
2019/04/29,00:30,0.750,1.092,0.755,1.381,1.015,0.433,0.765,0.724,��쐼,3.7,��
2019/04/29,00:40,0.749,1.092,0.753,1.381,1.015,0.432,0.763,0.722,��쐼,3.6,��
2019/04/29,00:50,0.751,1.092,0.755,1.382,1.014,0.434,0.764,0.723,��쐼,3.7,��
2019/04/29,01:00,0.748,1.094,0.754,1.385,1.015,0.432,0.764,0.725,��쐼,3.0,��
2019/04/29,01:10,0.749,1.092,0.753,1.382,1.016,0.433,0.764,0.723,��,3.4,��
2019/04/29,01:20,0.748,1.092,0.754,1.383,1.017,0.431,0.763,0.725,��쐼,3.3,��
2019/04/29,01:30,0.749,1.092,0.754,1.383,1.013,0.433,0.763,0.723,��,2.5,��
2019/04/29,01:40,0.749,1.092,0.752,1.382,1.014,0.433,0.764,0.724,��쐼,3.2,��
2019/04/29,01:50,0.751,1.093,0.755,1.382,1.014,0.430,0.764,0.724,��쐼,2.8,��
2019/04/29,02:00,0.748,1.096,0.753,1.380,1.013,0.433,0.764,0.722,��,2.3,��
2019/04/29,02:10,0.750,1.092,0.756,1.384,1.012,0.431,0.764,0.723,��쐼,2.3,��
2019/04/29,02:20,0.750,1.091,0.753,1.383,1.014,0.432,0.764,0.725,��쐼,2.2,��
2019/04/29,02:30,0.749,1.092,0.754,1.382,1.014,0.429,0.761,0.724,��쐼,2.3,��
2019/04/29,02:40,0.750,1.092,0.754,1.382,1.013,0.433,0.763,0.724,��쐼,1.7,��
2019/04/29,02:50,0.749,1.093,0.753,1.379,1.012,0.432,0.764,0.723,��쐼,2.5,��
2019/04/29,03:00,0.748,1.091,0.753,1.382,1.015,0.433,0.765,0.724,��,3.3,��
2019/04/29,03:10,0.749,1.093,0.753,1.383,1.014,0.432,0.763,0.726,��쐼,3.2,��
2019/04/29,03:20,0.749,1.090,0.753,1.382,1.014,0.431,0.764,0.723,��쐼,3.2,��
2019/04/29,03:30,0.748,1.092,0.752,1.381,1.014,0.431,0.764,0.723,��쐼,2.6,��
2019/04/29,03:40,0.749,1.091,0.754,1.381,1.013,0.430,0.763,0.725,��쐼,2.5,��
2019/04/29,03:50,0.748,1.092,0.754,1.381,1.016,0.430,0.762,0.724,��쐼,2.6,��
2019/04/29,04:00,0.750,1.090,0.753,1.386,1.013,0.432,0.763,0.724,��,3.1,��
2019/04/29,04:10,0.748,1.092,0.751,1.382,1.012,0.431,0.761,0.725,��쐼,2.6,��
2019/04/29,04:20,0.748,1.091,0.753,1.384,1.013,0.431,0.763,0.723,��쐼,3.6,��
2019/04/29,04:30,0.747,1.091,0.755,1.383,1.011,0.431,0.764,0.723,��,3.5,��
2019/04/29,04:40,0.749,1.092,0.753,1.381,1.013,0.432,0.761,0.724,��,4.4,��
2019/04/29,04:50,0.748,1.092,0.753,1.382,1.013,0.432,0.764,0.722,��쐼,3.6,��
2019/04/29,05:00,0.747,1.092,0.753,1.380,1.013,0.431,0.763,0.725,��,4.3,��
2019/04/29,05:10,0.748,1.092,0.753,1.382,1.012,0.430,0.761,0.724,��쐼,4.1,��
2019/04/29,05:20,0.749,1.092,0.752,1.385,1.014,0.431,0.766,0.724,��,3.7,��
2019/04/29,05:30,0.749,1.092,0.754,1.383,1.014,0.431,0.764,0.723,��쐼,2.3,��
2019/04/29,05:40,0.747,1.091,0.754,1.384,1.012,0.431,0.763,0.723,��쐼,2.0,��
2019/04/29,05:50,0.748,1.092,0.753,1.382,1.014,0.432,0.763,0.724,�쐼,2.0,��
2019/04/29,06:00,0.748,1.093,0.754,1.383,1.014,0.431,0.763,0.724,�쐼,1.7,��
2019/04/29,06:10,0.749,1.091,0.754,1.384,1.015,0.431,0.766,0.726,���쐼,2.0,��
2019/04/29,06:20,0.748,1.092,0.753,1.383,1.013,0.432,0.763,0.725,���쐼,2.0,��
2019/04/29,06:30,0.750,1.093,0.755,1.386,1.013,0.432,0.764,0.722,���쐼,2.2,��
2019/04/29,06:40,0.750,1.097,0.754,1.385,1.014,0.433,0.766,0.723,��,1.7,��
2019/04/29,06:50,0.750,1.093,0.754,1.381,1.016,0.430,0.766,0.724,���k��,1.4,��
2019/04/29,07:00,0.751,1.093,0.756,1.387,1.016,0.431,0.765,0.726,-,CALM,��
2019/04/29,07:10,0.751,1.096,0.755,1.387,1.016,0.432,0.765,0.726,-,CALM,��
2019/04/29,07:20,0.750,1.096,0.755,1.384,1.016,0.433,0.766,0.725,�k,0.6,��
2019/04/29,07:30,0.751,1.094,0.755,1.384,1.017,0.434,0.765,0.725,-,CALM,��
2019/04/29,07:40,0.750,1.097,0.755,1.387,1.016,0.432,0.766,0.725,�k��,1.2,��
2019/04/29,07:50,0.751,1.094,0.758,1.386,1.013,0.432,0.764,0.725,�k��,1.4,��
2019/04/29,08:00,0.751,1.093,0.757,1.387,1.014,0.430,0.766,0.725,��,1.5,��
2019/04/29,08:10,0.752,1.092,0.755,1.386,1.014,0.431,0.764,0.725,��,1.7,��
2019/04/29,08:20,0.749,1.091,0.756,1.386,1.018,0.430,0.764,0.724,��,1.7,��
2019/04/29,08:30,0.749,1.092,0.755,1.383,1.014,0.431,0.763,0.725,���쓌,3.0,��
2019/04/29,08:40,0.751,1.093,0.756,1.388,1.014,0.430,0.762,0.724,�쓌,3.2,��
2019/04/29,08:50,0.751,1.093,0.756,1.386,1.016,0.431,0.764,0.723,�쓌,3.6,��
2019/04/29,09:00,0.752,1.094,0.757,1.385,1.017,0.430,0.764,0.722,�쓌,3.5,��
2019/04/29,09:10,0.750,1.094,0.756,1.388,1.018,0.431,0.763,0.722,��쓌,3.5,��
2019/04/29,09:20,0.753,1.097,0.755,1.386,1.018,0.432,0.763,0.722,�쓌,3.2,��
2019/04/29,09:30,0.753,1.095,0.756,1.388,1.018,0.431,0.763,0.723,��쓌,5.5,��
2019/04/29,09:40,0.752,1.097,0.757,1.385,1.018,0.433,0.763,0.724,�쓌,4.3,��
2019/04/29,09:50,0.750,1.096,0.756,1.387,1.018,0.432,0.764,0.724,��쓌,4.5,��
2019/04/29,10:00,0.750,1.098,0.757,1.386,1.017,0.432,0.764,0.723,��쓌,6.9,��
2019/04/29,10:10,0.751,1.099,0.757,1.386,1.018,0.432,0.765,0.724,��쓌,8.2,��
2019/04/29,10:20,0.751,1.098,0.756,1.387,1.018,0.431,0.766,0.722,��쓌,9.2,��
2019/04/29,10:30,0.752,1.099,0.758,1.387,1.020,0.432,0.765,0.724,��쓌,10.6,��
2019/04/29,10:40,0.752,1.100,0.758,1.387,1.019,0.432,0.765,0.723,��쓌,11.4,��
2019/04/29,10:50,0.751,1.100,0.755,1.388,1.020,0.433,0.765,0.723,��쓌,8.6,��
2019/04/29,11:00,0.751,1.100,0.754,1.388,1.021,0.432,0.764,0.724,��쓌,9.3,��
2019/04/29,11:10,0.751,1.101,0.756,1.389,1.019,0.434,0.765,0.725,��쓌,10.8,��
2019/04/29,11:20,0.753,1.101,0.756,1.387,1.020,0.432,0.765,0.723,��쓌,13.3,��
2019/04/29,11:30,0.753,1.100,0.756,1.386,1.016,0.432,0.766,0.723,��쓌,11.6,��
2019/04/29,11:40,0.753,1.102,0.757,1.386,1.022,0.433,0.765,0.724,��쓌,10.0,��
2019/04/29,11:50,0.754,1.101,0.755,1.386,1.021,0.433,0.766,0.724,��쓌,10.7,��
2019/04/29,12:00,0.753,1.104,0.756,1.386,1.020,0.434,0.767,0.724,��쓌,11.7,��
2019/04/29,12:10,0.755,1.102,0.756,1.389,1.021,0.433,0.767,0.723,��쓌,11.4,��
2019/04/29,12:20,0.754,1.103,0.756,1.388,1.020,0.433,0.766,0.723,��쓌,11.8,��
2019/04/29,12:30,0.754,1.103,0.757,1.386,1.022,0.435,0.768,0.727,��쓌,12.2,��
2019/04/29,12:40,0.753,1.103,0.755,1.385,1.020,0.434,0.766,0.726,��쓌,12.2,��
2019/04/29,12:50,0.754,1.102,0.754,1.391,1.023,0.434,0.765,0.725,��쓌,13.1,��
2019/04/29,13:00,0.753,1.102,0.757,1.391,1.022,0.434,0.766,0.724,��쓌,12.0,��
2019/04/29,13:10,0.757,1.104,0.757,1.389,1.023,0.436,0.766,0.726,��,13.5,��
2019/04/29,13:20,0.753,1.102,0.759,1.391,1.022,0.434,0.767,0.724,��쓌,13.0,��
2019/04/29,13:30,0.754,1.103,0.759,1.390,1.024,0.434,0.766,0.726,��쓌,13.1,��
2019/04/29,13:40,0.755,1.103,0.759,1.392,1.024,0.435,0.768,0.724,��쓌,12.4,��
2019/04/29,13:50,0.753,1.104,0.757,1.390,1.026,0.436,0.766,0.726,��,13.3,��
2019/04/29,14:00,0.756,1.104,0.760,1.394,1.027,0.436,0.766,0.726,��,13.8,��
2019/04/29,14:10,0.755,1.104,0.758,1.393,1.025,0.435,0.768,0.725,��쓌,13.0,��
2019/04/29,14:20,0.757,1.105,0.760,1.392,1.026,0.435,0.767,0.726,��쓌,13.8,��
2019/04/29,14:30,0.756,1.106,0.759,1.389,1.027,0.435,0.766,0.725,��쓌,15.2,��
2019/04/29,14:40,0.755,1.106,0.759,1.389,1.026,0.435,0.766,0.726,��,14.1,��
2019/04/29,14:50,0.757,1.104,0.759,1.392,1.029,0.437,0.767,0.726,��쓌,12.1,��
2019/04/29,15:00,0.757,1.106,0.759,1.389,1.025,0.437,0.770,0.725,��,11.3,��
2019/04/29,15:10,0.756,1.108,0.761,1.391,1.026,0.436,0.768,0.725,��,13.8,��
2019/04/29,15:20,0.758,1.106,0.760,1.392,1.028,0.437,0.767,0.726,��쓌,13.8,��
2019/04/29,15:30,0.757,1.104,0.760,1.391,1.027,0.437,0.768,0.724,��쓌,13.1,��
2019/04/29,15:40,0.755,1.107,0.759,1.393,1.027,0.438,0.768,0.726,��,13.0,��
2019/04/29,15:50,0.756,1.106,0.761,1.392,1.027,0.437,0.768,0.724,��,9.0,��
2019/04/29,16:00,0.756,1.107,0.760,1.392,1.030,0.435,0.768,0.726,��쓌,11.3,��
2019/04/29,16:10,0.757,1.106,0.759,1.394,1.028,0.437,0.768,0.724,��쓌,11.3,��
2019/04/29,16:20,0.756,1.108,0.759,1.392,1.027,0.437,0.767,0.725,��,10.5,��
2019/04/29,16:30,0.757,1.108,0.759,1.392,1.028,0.437,0.769,0.726,��,11.6,��
2019/04/29,16:40,0.757,1.109,0.760,1.393,1.028,0.437,0.766,0.725,��,10.7,��
2019/04/29,16:50,0.757,1.108,0.761,1.392,1.030,0.437,0.767,0.726,��,9.4,��
2019/04/29,17:00,0.758,1.108,0.760,1.392,1.029,0.437,0.768,0.727,��쓌,8.4,��
2019/04/29,17:10,0.758,1.111,0.760,1.393,1.028,0.436,0.766,0.724,��,9.6,��
2019/04/29,17:20,0.757,1.111,0.758,1.394,1.029,0.438,0.767,0.727,��쓌,10.8,��
2019/04/29,17:30,0.757,1.111,0.758,1.392,1.029,0.438,0.767,0.726,��,9.4,��
2019/04/29,17:40,0.757,1.109,0.760,1.393,1.029,0.438,0.767,0.726,��,8.0,��
2019/04/29,17:50,0.757,1.110,0.760,1.395,1.028,0.438,0.766,0.727,��,8.2,��
2019/04/29,18:00,0.758,1.108,0.759,1.395,1.029,0.437,0.767,0.728,��,8.2,��
2019/04/29,18:10,0.759,1.114,0.761,1.394,1.029,0.438,0.765,0.728,��,7.6,��
2019/04/29,18:20,0.761,1.110,0.760,1.395,1.029,0.437,0.767,0.729,��,7.0,��
2019/04/29,18:30,0.760,1.110,0.761,1.397,1.028,0.437,0.766,0.727,��,7.8,��
2019/04/29,18:40,0.759,1.112,0.761,1.398,1.030,0.438,0.769,0.728,��,7.1,��
2019/04/29,18:50,0.760,1.113,0.762,1.395,1.031,0.438,0.769,0.728,��,7.4,��
2019/04/29,19:00,0.758,1.111,0.763,1.393,1.028,0.437,0.767,0.729,��,7.4,��
2019/04/29,19:10,0.760,1.113,0.763,1.398,1.029,0.440,0.768,0.729,��,7.5,��
2019/04/29,19:20,0.759,1.111,0.764,1.396,1.028,0.438,0.768,0.729,��,8.5,��
2019/04/29,19:30,0.758,1.111,0.762,1.398,1.031,0.439,0.770,0.727,��,8.1,��
2019/04/29,19:40,0.760,1.112,0.763,1.397,1.031,0.439,0.767,0.728,��,8.1,��
2019/04/29,19:50,0.759,1.109,0.762,1.396,1.032,0.438,0.769,0.728,��,8.7,��
2019/04/29,20:00,0.758,1.112,0.762,1.396,1.031,0.438,0.769,0.728,��,9.1,��
2019/04/29,20:10,0.759,1.111,0.761,1.395,1.030,0.438,0.769,0.729,��,9.2,��
2019/04/29,20:20,0.760,1.112,0.763,1.398,1.032,0.437,0.768,0.729,��,8.7,��
2019/04/29,20:30,0.759,1.111,0.762,1.397,1.033,0.438,0.769,0.727,��,8.4,��
2019/04/29,20:40,0.760,1.113,0.764,1.396,1.033,0.437,0.767,0.728,��,7.7,��
2019/04/29,20:50,0.758,1.111,0.763,1.396,1.030,0.439,0.769,0.727,��,7.5,��
2019/04/29,21:00,0.760,1.110,0.764,1.395,1.033,0.439,0.769,0.728,��쓌,7.6,��
2019/04/29,21:10,0.757,1.111,0.761,1.395,1.032,0.438,0.770,0.729,��,8.0,��
2019/04/29,21:20,0.758,1.112,0.761,1.396,1.031,0.438,0.770,0.729,��,8.2,��
2019/04/29,21:30,0.758,1.110,0.764,1.397,1.032,0.437,0.767,0.728,��,7.2,��
2019/04/29,21:40,0.758,1.109,0.763,1.397,1.032,0.437,0.770,0.729,��,7.8,��
2019/04/29,21:50,0.760,1.110,0.763,1.397,1.032,0.437,0.769,0.729,��,7.4,��
2019/04/29,22:00,0.759,1.111,0.763,1.394,1.031,0.437,0.769,0.729,��,7.3,��
2019/04/29,22:10,0.758,1.111,0.760,1.398,1.031,0.438,0.768,0.729,��,7.3,��
2019/04/29,22:20,0.758,1.109,0.763,1.397,1.029,0.438,0.768,0.727,��,7.4,��
2019/04/29,22:30,0.758,1.110,0.764,1.396,1.031,0.436,0.771,0.729,��,6.3,��
2019/04/29,22:40,0.759,1.112,0.763,1.397,1.029,0.438,0.770,0.728,��,7.0,��
2019/04/29,22:50,0.759,1.112,0.761,1.398,1.034,0.436,0.768,0.727,��,7.1,��
2019/04/29,23:00,0.758,1.111,0.762,1.398,1.032,0.437,0.769,0.728,��,6.9,��
2019/04/29,23:10,0.760,1.110,0.761,1.398,1.033,0.439,0.770,0.729,��,6.1,��
2019/04/29,23:20,0.759,1.110,0.760,1.397,1.032,0.440,0.770,0.728,��,5.5,��
2019/04/29,23:30,0.759,1.113,0.761,1.398,1.033,0.437,0.769,0.727,��,5.9,��
2019/04/29,23:40,0.757,1.112,0.762,1.396,1.031,0.438,0.769,0.728,��,6.4,��
2019/04/29,23:50,0.759,1.110,0.763,1.397,1.031,0.438,0.768,0.728,��,6.4,��
